Paris/de Gaulle Arpt, France

6:11 AM CET on February 25, 2017 (GMT +0100)
Charles de Gaulle

Weather History for LFPG - June, 2014

Change the Weather History Date:

Friday, June 27, 2014

  Actual Average Record
Temperature  
Mean Temperature 68 °F -  
Max Temperature 75 °F 74 °F 96 °F (2011)
Min Temperature 60 °F 56 °F 48 °F (2000)
Cooling Degree Days 2    
Growing Degree Days 18 (Base 50)    
Moisture  
Dew Point 56 °F    
Average Humidity 67    
Maximum Humidity 94    
Minimum Humidity 32    
Precipitation  
Precipitation 0.01 in - - ()
Sea Level Pressure  
Sea Level Pressure 29.97 in    
Wind  
Wind Speed 6 mph ()    
Max Wind Speed 18 mph    
Max Gust Speed -    
Visibility 7.9 miles    
Events Rain    
Averages and records for this station are not official NWS values.
T = Trace of Precipitation, MM = Missing Value Source: Averaged Metar Reports

Daily Weather History Graph

Daily Weather History Graph

Search for Another Location

Airport or City:

Trip Planner

Search our weather history database for the weather conditions in past years. The results will help you decide how hot, cold, wet, or windy it might be!

Date:

Astronomy

Jun. 27, 2014 Rise Set
Actual Time 5:47 AM CEST 9:58 PM CEST
Civil Twilight 5:04 AM CEST 10:41 PM CEST
Nautical Twilight 4:03 AM CEST 11:41 PM CEST
Astronomical Twilight 2:25 AM CEST 1:20 AM CEST
Moon 6:13 AM CEST (6/27) 9:42 PM CEST (6/27)
Length of Visible Light 17h 36m
Length of Day
16h 10m
New Moon, 0% of the Moon is Illuminated
Jun 27
New Moon
Jul 5
First Quarter
Jul 12
Full
Jul 19
Last Quarter
Jul 27
New

Hourly Weather History & Observations

Time (CEST) Temp. Dew Point Humidity Pressure Visibility Wind Dir Wind Speed Gust Speed Precip Events Conditions
12:00 AM 64 °F 56 °F 68% 29.97 in 19 mi East 2.3 mph - - Rain Light Rain
12:00 AM 64.4 °F 55.4 °F 73% 29.95 in - Variable 3.5 mph - N/A   Clear
12:30 AM 64.4 °F 55.4 °F 73% 29.98 in - NNW 2.3 mph - N/A   Clear
1:00 AM 63 °F 56 °F 71% 29.98 in 12 mi West 2.3 mph - -   Mostly Cloudy
1:00 AM 62.6 °F 55.4 °F 77% 29.98 in - West 2.3 mph - N/A   Clear
1:30 AM 64.4 °F 57.2 °F 77% 29.98 in - Variable 4.6 mph - N/A   Clear
2:00 AM 63 °F 58 °F 77% 29.98 in 6 mi West 5.8 mph - -   Partly Cloudy
2:00 AM 62.6 °F 57.2 °F 82% 29.98 in - West 5.8 mph - N/A   Clear
2:30 AM 62.6 °F 59.0 °F 88% 29.98 in - West 4.6 mph - N/A   Clear
3:00 AM 63 °F 58 °F 78% 29.97 in 5 mi West 3.5 mph - -   Mostly Cloudy
3:00 AM 62.6 °F 59.0 °F 88% 29.98 in 5.0 mi West 3.5 mph - N/A   Unknown
3:30 AM 62.6 °F 57.2 °F 82% 29.95 in 5.0 mi West 6.9 mph - N/A   Unknown
4:00 AM 62 °F 57 °F 80% 29.97 in 6 mi West 6.9 mph - -   Mostly Cloudy
4:00 AM 62.6 °F 57.2 °F 82% 29.95 in - West 6.9 mph - N/A   Clear
4:30 AM 60.8 °F 57.2 °F 88% 29.98 in - West 5.8 mph - N/A   Clear
5:00 AM 61 °F 58 °F 85% 29.97 in 5 mi NNW 3.5 mph - -   Mostly Cloudy
5:00 AM 60.8 °F 57.2 °F 88% 29.95 in 5.0 mi NNW 2.3 mph - N/A   Mostly Cloudy
5:30 AM 60.8 °F 57.2 °F 88% 29.98 in 5.0 mi Calm Calm - N/A   Mostly Cloudy
6:00 AM 60 °F 57 °F 87% 29.98 in 3 mi WSW 2.3 mph - -   Mostly Cloudy
6:00 AM 60.8 °F 57.2 °F 88% 29.98 in 3.1 mi WSW 2.3 mph - N/A   Mostly Cloudy
6:30 AM 60.8 °F 57.2 °F 88% 29.98 in 3.1 mi Calm Calm - N/A   Mostly Cloudy
7:00 AM 60 °F 58 °F 90% 29.98 in 3 mi WNW 2.3 mph - -   Mostly Cloudy
7:00 AM 60.8 °F 57.2 °F 88% 29.98 in 3.1 mi WNW 1.2 mph - N/A   Mostly Cloudy
7:30 AM 60.8 °F 59.0 °F 94% 29.98 in 3.7 mi Variable 1.2 mph - N/A   Scattered Clouds
8:00 AM 61 °F 58 °F 88% 29.99 in 4 mi West 3.5 mph - -   Partly Cloudy
8:00 AM 60.8 °F 59.0 °F 94% 29.98 in 3.7 mi West 3.5 mph - N/A   Scattered Clouds
8:30 AM 62.6 °F 59.0 °F 88% 29.98 in 5.0 mi Variable 2.3 mph - N/A   Mostly Cloudy
9:00 AM 64 °F 58 °F 75% 30.00 in 6 mi SSW 2.3 mph - -   Scattered Clouds
9:00 AM 64.4 °F 59.0 °F 83% 29.98 in 6.2 mi Variable 2.3 mph - N/A   Scattered Clouds
9:30 AM 66.2 °F 57.2 °F 73% 29.98 in 6.2 mi SSW 4.6 mph - N/A   Scattered Clouds
10:00 AM 67 °F 58 °F 64% 29.99 in 6 mi SW 3.5 mph - -   Mostly Cloudy
10:00 AM 68.0 °F 57.2 °F 68% 29.98 in 6.2 mi Variable 2.3 mph - N/A   Scattered Clouds
10:30 AM 66.2 °F 57.2 °F 73% 29.98 in 6.2 mi Variable 1.2 mph - N/A Rain Light Rain Showers
11:00 AM 67 °F 57 °F 63% 29.99 in 6 mi WNW 3.5 mph - - Rain Light Rain Showers
11:00 AM 66.2 °F 57.2 °F 73% 29.98 in 6.2 mi Variable 2.3 mph - N/A Rain Light Rain Showers
11:30 AM 66.2 °F 59.0 °F 78% 29.98 in 6.2 mi WSW 5.8 mph - N/A   Mostly Cloudy
12:00 PM 70 °F 57 °F 54% 29.99 in 7 mi West 11.5 mph - - Rain Light Rain Showers
12:00 PM 69.8 °F 57.2 °F 64% 29.98 in 6.2 mi West 11.5 mph - N/A   Scattered Clouds
12:30 PM 68.0 °F 55.4 °F 64% 29.98 in 6.2 mi WSW 12.7 mph - N/A   Scattered Clouds
1:00 PM 71 °F 56 °F 49% 29.99 in 9 mi WSW 15.0 mph - -   Mostly Cloudy
1:00 PM 69.8 °F 55.4 °F 60% 29.98 in 6.2 mi WSW 15.0 mph - N/A   Scattered Clouds
1:30 PM 73.4 °F 55.4 °F 53% 29.98 in 6.2 mi WSW 11.5 mph - N/A   Scattered Clouds
2:00 PM 72 °F 53 °F 41% 29.97 in 12 mi SW 8.1 mph - -   Partly Cloudy
2:00 PM 71.6 °F 53.6 °F 53% 29.98 in 6.2 mi SW 9.2 mph - N/A   Scattered Clouds
2:30 PM 71.6 °F 53.6 °F 53% 29.98 in 6.2 mi WSW 11.5 mph - N/A   Mostly Cloudy
3:00 PM 73 °F 53 °F 40% 29.96 in 12 mi SW 11.5 mph - -   Mostly Cloudy
3:00 PM 73.4 °F 53.6 °F 50% 29.95 in 6.2 mi SW 12.7 mph - N/A   Mostly Cloudy
3:30 PM 75.2 °F 51.8 °F 44% 29.95 in 6.2 mi SSW 11.5 mph - N/A   Mostly Cloudy
4:00 PM 75 °F 51 °F 32% 29.94 in 16 mi WSW 13.8 mph - -   Mostly Cloudy
4:00 PM 75.2 °F 51.8 °F 44% 29.95 in - SW 13.8 mph - N/A   Clear
4:30 PM 75.2 °F 50.0 °F 41% 29.95 in - SW 12.7 mph - N/A   Clear
5:00 PM 73 °F 49 °F 32% 29.94 in 16 mi WSW 16.1 mph - -   Mostly Cloudy
5:00 PM 73.4 °F 50.0 °F 44% 29.95 in - WSW 16.1 mph - N/A   Clear
5:30 PM 71.6 °F 53.6 °F 53% 29.95 in 6.2 mi West 16.1 mph - N/A   Scattered Clouds
6:00 PM 70 °F 55 °F 49% 29.95 in 19 mi West 18.4 mph - - Rain Light Rain Showers
6:00 PM 69.8 °F 55.4 °F 60% 29.95 in - WSW 18.4 mph - N/A   Clear
6:30 PM 69.8 °F 53.6 °F 56% 29.95 in - WSW 15.0 mph - N/A   Clear
7:00 PM 68 °F 55 °F 54% 29.95 in 19 mi SW 12.7 mph - - Rain Light Rain
7:00 PM 68.0 °F 55.4 °F 64% 29.95 in 6.2 mi SW 13.8 mph - N/A   Mostly Cloudy
7:30 PM 69.8 °F 53.6 °F 56% 29.95 in 6.2 mi SW 12.7 mph - N/A   Mostly Cloudy
8:00 PM 70 °F 53 °F 45% 29.95 in 19 mi SW 12.7 mph - -   Partly Cloudy
8:00 PM 69.8 °F 53.6 °F 56% 29.95 in 6.2 mi SW 12.7 mph - N/A   Mostly Cloudy
8:30 PM 69.8 °F 53.6 °F 56% 29.95 in 6.2 mi WSW 11.5 mph - N/A   Mostly Cloudy
9:00 PM 69 °F 54 °F 48% 29.94 in 19 mi WSW 10.4 mph - -   Partly Cloudy
9:00 PM 68.0 °F 53.6 °F 60% 29.95 in 6.2 mi WSW 10.4 mph - N/A   Mostly Cloudy
9:30 PM 68.0 °F 53.6 °F 60% 29.95 in 6.2 mi WSW 5.8 mph - N/A   Mostly Cloudy
10:00 PM 67 °F 55 °F 57% 29.95 in 19 mi West 5.8 mph - -   Partly Cloudy
10:00 PM 68.0 °F 55.4 °F 64% 29.95 in 6.2 mi West 5.8 mph - N/A   Mostly Cloudy
10:30 PM 66.2 °F 57.2 °F 73% 29.95 in 6.2 mi SSW 5.8 mph - N/A   Mostly Cloudy
11:00 PM 65 °F 56 °F 66% 29.97 in 19 mi SW 5.8 mph - -   Partly Cloudy
11:00 PM 66.2 °F 57.2 °F 73% 29.98 in 6.2 mi SW 6.9 mph - N/A   Mostly Cloudy
11:30 PM 64.4 °F 55.4 °F 73% 29.98 in 6.2 mi WSW 3.5 mph - N/A   Mostly Cloudy